This is the latest recevied weather packets stored in our database for station/object R1ZAAG-14. If no packets are shown the sender has not sent any weather packets the latest 10 day(s).
| Time | Temp. | Humidity | Pressure | Rain* | Wind** | Luminosity | Snow |
|---|---|---|---|---|---|---|---|
| 1777832762 | 6.11° C | 45% | 1001.6 hPa | - | - | - | - |
| 1777831868 | 6.67° C | 44% | 1001.5 hPa | - | - | - | - |
| 1777831862 | 6.67° C | 44% | 1001.5 hPa | - | - | - | - |
| 1777830966 | 7.78° C | 43% | 1001.7 hPa | - | - | - | - |
| 1777830961 | 7.78° C | 43% | 1001.7 hPa | - | - | - | - |
| 1777830065 | 6.11° C | 46% | 1001.4 hPa | - | - | - | - |
| 1777830059 | 6.11° C | 46% | 1001.4 hPa | - | - | - | - |
| 1777829167 | 7.22° C | 43% | 1001.2 hPa | - | - | - | - |
| 1777829159 | 7.22° C | 43% | 1001.2 hPa | - | - | - | - |
| 1777828264 | 9.44° C | 40% | 1001 hPa | - | - | - | - |
| 1777828258 | 9.44° C | 40% | 1001 hPa | - | - | - | - |
| 1777827368 | 9.44° C | 39% | 1001.2 hPa | - | - | - | - |
| 1777827357 | 9.44° C | 39% | 1001.2 hPa | - | - | - | - |
| 1777826467 | 10.56° C | 39% | 1000.9 hPa | - | - | - | - |
| 1777826457 | 10.56° C | 39% | 1000.9 hPa | - | - | - | - |
| 1777825576 | 11.11° C | 39% | 1000.8 hPa | - | - | - | - |
| 1777824676 | 10.56° C | 38% | 1000.6 hPa | - | - | - | - |
| 1777823775 | 10° C | 39% | 1000.7 hPa | - | - | - | - |
| 1777822875 | 9.44° C | 39% | 1000.7 hPa | - | - | - | - |
| 1777821974 | 10° C | 40% | 1000.6 hPa | - | - | - | - |
| 1777821073 | 8.89° C | 40% | 1000.8 hPa | - | - | - | - |
| 1777820172 | 9.44° C | 40% | 1000.7 hPa | - | - | - | - |
| 1777819269 | 10° C | 39% | 1000.6 hPa | - | - | - | - |
| 1777818368 | 8.89° C | 40% | 1000.6 hPa | - | - | - | - |
| 1777817468 | 8.89° C | 41% | 1000.5 hPa | - | - | - | - |
* Rain since midnight (hover to see other rain measurements)
** Current wind speed in m/s (hover to see current wind gust speed)